Volver al catálogo

FENGYUN 1C DEB

ActivoPO
NORAD 30934·DEBRIS·🇨🇳 China

Lanzado May 10, 1999 desde Taiyuan Satellite Launch Center

Loading…

Próximos Pases (próximas 24 horas)

TLE

ActualizadoSource: Space-Track

Época: Sep 14, 2026, 05:13 UTC

1 30934U 99025AZY 26257.21786506  .00000759  00000-0  91074-3 0  9996
2 30934  98.7440 105.4276 0339884  98.8955 265.0814 13.47504589954175

Sigue FENGYUN 1C DEB en tiempo real con AllMySat

Download on the App Store